Flag for Canada Weather past 2 weeks in Saint-Georges, Quebec, Canada

Now
18 °F

Cold.


Feels Like: 18 °F
Forecast: 6 / 24 °F
Wind: 2 mph from Northwest

Location: Beauceville

Current Time: Mar 2, 2015 at 6:51:40 AM

Latest Report: Mar 2, 2015 at 6:00 AM


Visibility: N/A

Pressure: 29.86 "Hg

Humidity: 89%

Dew point: 15 °F

Location of Saint-GeorgesLocation

Historic Weather in Saint-Georges — Graph

°F

Saint-Georges temperature yesterday

Maximum temperature yesterday: 28 °F (at 7:00 PM)
Minimum temperature yesterday: -3 °F (at 5:00 AM)
Average temperature yesterday: 14 °F

Past Weeks' High & Low Weather Summary

 TemperatureHumidityPressure
High28 °F (Mar 1, 7:00 PM)100% (Feb 22, 2:00 AM)30.64 "Hg (Feb 22, 2:00 AM)
Low-21 °F (Feb 24, 6:00 AM)31% (Mar 1, 4:00 PM)29.49 "Hg (Feb 19, 10:00 PM)
Average6 °F65%30.02 "Hg
* Reported Feb 15 5:00 AM — Mar 2 5:00 AM, Saint-Georges, Weather by CustomWeather, © 2015

Note: Actual official high and low records may vary slightly from our data, if they occured in-between our weather recording intervals... More about our weather records

Advertising

Saint-Georges weather history for previous 24 hours

 ConditionsComfort  
Time TempWeatherWind HumidityBarometerVisibility
5:00 AM
Mon, Mar 2
19 °FCold.3 mph88%29.87 "HgN/A
4:00 AM20 °FCold.1 mph92%29.88 "HgN/A
3:00 AM19 °FCold.2 mph94%29.90 "HgN/A
2:00 AM21 °FCold.1 mph94%29.94 "HgN/A
1:00 AM21 °FCold.1 mph94%29.97 "HgN/A
12:00 AM21 °FCold.1 mph91%29.99 "HgN/A
10:00 PM
Sun, Mar 1
24 °FCold.2 mph63%30.07 "HgN/A
9:00 PM26 °FChilly.3 mph61%30.09 "HgN/A
8:00 PM25 °FChilly.3 mph69%30.13 "HgN/A
7:00 PM28 °FChilly.3 mph58%30.16 "HgN/A
6:00 PM27 °FChilly.3 mph36%30.19 "HgN/A
5:00 PM27 °FChilly.No wind35%30.22 "HgN/A
4:00 PM27 °FChilly.5 mph31%30.24 "HgN/A
3:00 PM26 °FChilly.6 mph34%30.29 "HgN/A
2:00 PM26 °FChilly.5 mph32%30.33 "HgN/A
1:00 PM24 °FCold.3 mph32%30.39 "HgN/A
12:00 PM23 °FCold.6 mph41%30.45 "HgN/A
11:00 AM17 °FCold.2 mph57%30.50 "HgN/A
10:00 AM11 °FCold.2 mph70%30.55 "HgN/A
9:00 AM4 °FFrigid.2 mph80%30.59 "HgN/A
8:00 AM-1 °FFrigid.3 mph84%30.61 "HgN/A
7:00 AM-1 °FFrigid.1 mph79%30.61 "HgN/A
6:00 AM-2 °FFrigid.3 mph87%30.61 "HgN/A
Weather by CustomWeather, © 2015

See weather overviewHow to use our weather pages